{"data":{"norad_id":45434,"intl_designator":"2020-020L","name":"ONEWEB-0018","alt_names":[],"object_type":"PAYLOAD","status":"ACTIVE","operator":null,"country":"UK","launch_date":"2020-03-21","launch_site_code":"TYMSC","launch_vehicle":null,"mission":null,"orbit_class":"UNKNOWN","rcs_meters":null,"size_class":null,"mass_kg":null,"dimensions":null,"purposes":["comms"],"wikipedia_slug":null,"has_3d_model":false,"image_url":null,"decayed_at":null,"tle_current":{"epoch":"2026-09-20T04:58:27.050592Z","epoch_age_seconds":40028,"freshness":"FRESH","line1":"1 45434U 20020L   26263.20725753  .00000180  00000+0  47135-3 0  9995","line2":"2 45434  87.8971   2.1787 0002042  92.4439 267.6923 13.11415732315086","mean_motion":13.11415732,"eccentricity":0.0002042,"inclination_deg":87.8971,"raan_deg":2.1787,"arg_perigee_deg":92.4439,"mean_anomaly_deg":267.6923,"bstar":0.00047135,"rev_number":31508,"period_min":109.804996605,"perigee_km":1216.136314893,"apogee_km":1219.2384495707,"semimajor_km":7595.8243822319,"source":"CELESTRAK","updated_at":"2026-09-20T09:00:44.554032Z"}}}